Wind_Speed
22 18 13 9 5 4 2 2 1 2 3 5 5 9 10 5 11 8 13 14 16 17 16 16 15 14 12 5 7 9 4 4 11 17 10 10 9 5 5 4 3 1 4 3
21 17 13 9 7 7 2 2 1 1 5 5 7 10 7 8 11 12 11 11 9 13 17 18 17 16 13 5 7 6 1 4 6 9 11 8 5 5 4 4 4 10 5 6
21 17 13 11 9 7 2 3 2 2 1 4 7 10 10 12 6 11 13 14 11 14 16 15 16 13 6 5 10 6 6 13 15 15 16 18 16 17 14 11 5 13 13 24
19 17 15 12 9 8 1 2 3 2 4 5 7 6 3 8 9 8 5 7 15 15 16 16 18 18 18 13 15 13 11 18 19 24 24 23 23 21 19 22 19 17 24 24
19 17 16 14 10 7 4 3 3 3 3 1 8 5 5 5 2 3 3 8 5 8 10 11 16 15 12 12 7 11 14 15 16 17 18 18 21 22 22 23 25 26 26 26
19 17 16 14 11 5 3 1 1 3 3 4 5 6 7 6 3 3 3 1 5 5 7 7 9 9 11 13 13 14 14 7 6 15 17 18 12 17 21 23 23 23 23 23
20 18 15 13 9 3 3 0 1 1 3 5 4 1 5 6 6 8 5 6 8 2 5 10 12 14 15 16 17 15 18 18 14 13 18 20 19 20 23 24 23 21 21 22
18 17 15 12 9 8 3 3 1 1 3 2 3 6 6 8 8 11 11 11 10 9 10 9 9 11 15 19 21 20 19 17 14 13 17 22 26 25 25 25 25 20 22 19
18 18 16 13 11 12 5 3 0 2 2 1 2 4 3 8 7 6 9 4 3 5 7 9 15 13 16 10 8 12 11 10 12 15 19 22 22 22 19 18 15 24 20 21
20 17 14 12 11 11 5 3 4 2 2 6 3 5 5 3 6 7 4 4 6 9 8 10 13 15 18 17 19 16 12 10 14 14 18 19 22 21 22 19 19 21 20 19
15 14 12 12 11 11 7 4 6 5 3 7 7 10 12 9 7 8 2 6 7 6 9 9 12 11 14 15 19 19 15 13 14 15 20 27 22 24 22 18 17 21 21 19
14 13 11 11 11 10 9 2 6 6 2 7 12 14 15 17 18 11 9 9 10 3 5 5 5 10 12 18 16 18 15 14 12 18 17 23 25 26 24 24 24 25 22 23
13 12 10 10 11 12 13 7 7 3 2 8 12 10 14 20 24 21 10 10 15 15 12 8 9 15 11 13 13 19 20 19 15 19 23 24 25 23 22 24 25 24 24 22
11 10 10 9 10 11 12 11 8 6 1 3 7 4 12 9 13 18 22 21 16 11 6 8 9 12 11 14 18 18 16 20 22 24 26 24 23 23 21 17 19 19 20 21
10 9 8 7 8 9 10 10 8 10 3 3 7 17 21 18 17 15 19 20 15 9 7 6 11 12 14 14 16 17 17 22 15 17 22 20 23 22 22 23 23 21 21 21
9 7 6 6 7 7 5 3 8 10 8 3 4 6 8 10 10 14 15 15 11 6 4 7 8 18 12 8 15 26 21 22 21 20 23 23 26 26 26 26 23 21 21 20
6 5 5 5 6 8 2 2 3 9 8 2 4 4 3 4 7 8 8 13 7 5 5 8 14 14 7 7 17 29 22 25 25 23 23 22 21 20 23 23 23 20 18 18
3 3 5 7 8 3 5 4 6 9 3 3 3 4 5 5 6 7 2 1 2 4 5 7 9 12 11 12 22 23 21 17 20 20 20 21 22 22 21 21 23 24 22 19
7 7 8 7 3 4 4 2 3 6 5 3 4 5 5 1 5 4 3 4 5 5 6 8 6 9 7 12 16 19 20 21 16 15 16 19 19 22 22 22 22 20 19 19
12 9 3 1 2 4 5 2 2 3 3 3 5 5 6 3 3 3 3 4 4 4 6 5 3 10 18 19 18 15 15 15 14 12 18 20 21 19 20 20 20 19 18 15
5 3 3 6 7 2 0 2 3 4 3 5 5 8 8 3 5 4 4 3 3 4 3 3 3 4 1 7 12 12 13 13 15 18 19 20 19 19 17 16 17 18 19 14
4 3 5 5 2 2 3 3 2 4 4 2 4 4 5 4 4 4 4 3 3 5 5 3 3 3 11 13 15 15 16 15 17 20 19 18 16 15 15 14 12 15 14 3
5 3 2 3 3 4 4 5 4 3 2 3 5 7 2 3 4 4 3 5 5 1 3 3 2 8 13 15 14 17 17 16 18 20 18 16 18 19 10 9 5 9 5 6
2 3 4 4 5 5 4 5 6 5 6 9 9 6 3 3 5 4 4 5 3 4 3 4 9 14 15 14 14 14 17 17 16 18 18 19 16 14 12 12 9 3 5 9
2 3 4 6 6 4 4 6 7 8 8 8 7 5 4 4 4 4 5 4 5 1 4 6 8 13 13 13 14 15 14 14 14 15 15 15 14 12 10 12 10 5 7 9
2 4 4 5 5 6 6 5 7 7 7 7 6 4 4 3 3 4 5 4 3 3 5 6 8 10 12 13 14 14 13 13 13 13 13 13 11 11 11 10 8 2 6 8
4 4 6 8 8 7 6 5 5 6 4 3 4 3 3 5 4 4 1 2 4 5 6 5 8 10 12 13 13 11 12 13 11 14 17 15 15 15 8 6 6 4 6 8
Wind_Direction
158 153 154 153 138 128 163 221 187 7 175 203 208 229 246 351 272 233 254 271 279 280 281 281 266 266 266 138 234 263 300 277 279 277 281 244 294 294 165 238 135 261 273 285
160 155 154 153 152 153 250 71 66 174 236 205 222 228 253 262 269 258 260 252 263 280 272 270 267 273 271 202 270 288 237 236 281 272 248 157 253 164 162 189 201 245 251 266
163 159 155 156 155 154 284 141 163 241 135 315 263 227 244 240 217 272 270 275 275 280 265 262 267 273 264 220 251 39 316 280 268 266 281 302 274 265 240 207 237 273 267 285
165 162 157 154 153 150 186 357 258 53 176 197 219 267 289 246 235 218 246 264 243 254 263 266 263 264 261 211 218 237 231 258 266 267 268 266 268 276 278 271 260 254 277 278
169 165 158 160 153 148 253 146 188 205 155 213 206 172 224 266 222 271 282 278 338 309 283 276 274 300 299 278 284 275 251 255 271 279 287 283 276 269 267 267 269 274 281 284
168 167 168 164 158 166 72 238 85 299 109 202 233 220 239 235 297 213 294 274 290 275 302 309 320 305 291 280 284 281 271 271 259 267 280 279 280 260 266 272 274 273 273 283
165 169 173 171 166 157 113 268 250 163 207 235 226 278 259 232 240 284 286 244 280 360 310 308 280 262 265 265 260 256 263 270 275 275 280 267 268 266 274 277 283 284 281 281
164 170 171 174 176 161 122 156 74 215 271 278 222 240 258 266 260 249 258 276 289 311 295 287 272 267 257 247 246 247 246 256 267 267 267 275 277 272 278 281 282 306 297 285
164 172 173 178 176 168 171 150 78 124 314 245 350 260 249 278 255 227 224 238 293 271 262 261 257 263 273 267 269 255 262 263 258 259 259 265 273 281 296 314 296 272 272 279
167 169 168 171 179 178 189 138 204 273 257 261 220 251 320 287 291 282 240 243 232 226 257 261 262 267 269 268 269 266 258 247 256 264 268 273 274 292 303 288 276 292 291 286
162 157 165 178 187 182 189 155 200 245 268 284 246 255 265 257 245 269 122 275 220 258 257 259 270 266 271 280 273 273 273 268 265 269 266 270 276 271 260 283 304 298 304 297
156 163 168 172 186 199 199 195 199 219 229 283 308 281 273 269 281 295 280 264 279 264 261 267 300 289 292 286 278 286 280 280 281 273 276 286 299 295 291 292 293 292 288 276
166 171 177 188 200 214 214 229 169 168 268 279 259 262 264 247 249 250 257 257 258 262 270 284 279 274 282 277 278 283 283 285 276 281 277 280 277 280 290 290 289 292 293 293
166 175 184 194 204 212 216 225 220 217 260 271 285 227 246 259 244 232 236 251 259 273 271 278 271 272 275 278 286 285 282 286 282 280 281 288 291 282 279 284 286 287 285 280
174 178 181 193 200 211 222 237 226 207 217 305 296 298 282 252 240 246 239 237 249 257 258 239 255 263 270 269 277 268 270 269 268 272 277 273 272 275 273 275 274 267 265 271
169 181 196 210 208 201 203 253 210 211 205 291 296 326 282 259 244 239 237 240 244 238 242 254 254 265 271 268 267 274 279 278 270 271 278 287 294 297 287 278 279 276 276 273
178 201 223 219 204 185 232 350 76 157 171 262 287 272 169 245 231 235 237 244 242 236 254 241 258 270 246 262 268 274 286 296 292 287 286 285 292 297 306 303 289 277 263 258
170 151 139 146 158 197 223 150 121 155 223 235 266 269 270 179 259 252 202 191 249 217 240 256 260 266 261 258 261 273 275 303 325 310 302 287 289 285 276 277 285 279 276 260
137 128 126 123 201 228 82 149 173 220 261 275 212 276 306 148 262 282 202 229 235 223 229 238 252 243 236 258 284 308 304 293 313 308 296 289 280 279 289 292 281 268 268 271
132 136 155 244 82 113 100 134 208 215 231 235 259 252 251 263 245 260 265 209 236 253 235 258 241 255 269 284 302 305 303 296 292 307 306 313 305 296 292 285 279 283 273 264
167 191 204 79 131 163 184 253 232 207 239 211 237 236 247 258 240 267 231 253 244 249 207 217 243 253 323 296 311 332 328 315 312 303 307 313 299 293 290 277 266 266 272 266
174 82 106 148 196 217 236 239 240 233 260 221 259 252 244 247 205 245 210 250 237 252 140 233 241 68 338 352 339 332 329 331 322 326 319 306 302 302 291 273 257 250 254 279
161 212 81 228 160 235 229 199 223 239 251 266 291 296 262 248 196 235 252 234 238 224 225 247 46 355 351 344 337 332 333 333 331 324 326 322 326 324 322 324 250 245 220 141
215 174 222 221 184 238 211 262 313 310 292 298 302 299 260 227 195 233 245 232 253 248 249 36 359 347 343 343 338 336 336 338 330 330 332 336 336 330 341 4 11 148 136 139
220 226 242 223 244 275 271 286 286 286 289 292 296 283 225 234 234 214 260 237 231 23 26 340 331 337 344 339 343 340 336 334 330 333 332 332 335 334 339 360 10 65 118 136
251 239 246 252 263 259 257 263 280 289 305 304 261 256 269 253 250 245 237 276 53 21 342 331 326 336 335 337 337 334 331 328 327 330 332 331 337 334 329 341 360 41 138 136
239 242 239 257 276 278 278 274 283 311 295 279 299 268 251 293 259 257 301 1 340 333 324 322 328 331 329 331 329 330 327 325 329 332 336 331 337 331 334 350 4 50 98 123
Height
760 764 769 774 776 780 781 779 780 782 781 779 768 772 760 770 751 751 758 754 754 746 742 738 740 735 732 740 741 742 736 743 741 729 718 725 734 739 760 756 754 760 757 714
761 762 767 773 777 778 780 780 782 786 783 778 771 761 764 766 761 756 754 753 752 751 749 751 741 738 733 745 746 744 740 744 746 726 716 720 733 756 763 768 769 751 745 719
760 763 766 773 777 779 780 781 787 785 783 783 772 763 761 762 762 765 761 757 756 756 754 749 746 741 740 746 748 756 755 748 747 742 728 720 727 723 726 739 751 732 734 716
759 763 767 773 777 780 783 786 783 774 779 779 780 775 767 764 762 763 759 759 757 758 756 750 747 743 742 745 750 753 755 757 746 734 728 724 718 715 718 722 723 732 715 716
761 765 767 774 778 780 781 789 784 778 768 774 772 783 771 770 772 771 761 768 770 767 762 760 759 750 752 745 742 744 748 752 746 745 732 727 723 716 714 714 712 708 705 703
762 768 772 774 778 780 778 784 783 772 777 769 766 763 767 768 775 772 771 772 772 771 768 768 765 764 761 759 758 755 753 754 754 745 729 728 743 727 715 710 707 708 705 696
762 768 774 778 780 779 779 782 779 781 774 769 767 774 774 773 773 774 769 772 771 770 771 771 766 762 759 756 752 750 751 747 745 746 737 748 717 710 705 702 701 699 697 694
763 769 773 778 779 783 782 787 788 784 776 770 773 778 777 776 774 775 773 770 769 770 773 773 768 758 751 745 742 739 739 741 747 751 739 723 714 708 707 703 700 701 699 689
766 774 774 779 781 783 786 789 787 786 787 776 776 777 774 770 762 763 767 770 774 775 769 765 764 756 743 742 734 726 726 731 737 743 744 737 708 701 700 701 713 699 699 693
771 773 774 777 781 785 787 787 789 787 790 778 781 778 773 771 769 764 764 767 769 771 770 768 759 749 737 741 739 738 731 740 745 734 732 723 704 703 704 718 707 691 690 690
769 770 774 779 782 785 787 788 790 790 788 780 780 781 778 773 773 772 775 773 765 766 768 764 755 747 735 734 726 725 730 734 731 731 732 727 702 699 706 698 696 695 692 688
768 772 777 779 782 785 788 790 791 792 794 783 782 780 778 777 774 775 772 771 765 761 767 760 755 751 744 740 739 725 729 725 728 723 712 700 701 700 698 696 694 692 691 688
770 773 775 779 782 785 787 789 790 793 794 784 778 771 770 773 774 776 775 769 765 764 763 766 761 760 745 742 734 728 722 716 717 715 705 701 698 695 695 695 691 688 687 683
770 773 776 779 782 784 786 787 788 790 792 784 765 765 767 767 767 768 770 768 767 767 767 769 763 758 743 737 730 724 721 717 712 706 699 696 695 693 689 687 687 688 686 683
772 775 777 778 780 782 783 784 785 787 791 779 767 763 759 759 762 763 764 765 765 764 769 767 758 748 743 733 727 713 716 712 708 699 694 689 683 680 680 678 675 674 675 674
772 774 776 777 779 780 782 781 782 783 786 784 772 755 755 756 758 758 759 759 760 765 762 754 747 746 747 742 718 701 701 695 690 682 678 675 670 670 670 667 663 661 661 659
773 774 775 776 777 779 781 780 781 782 786 785 772 754 750 754 753 753 753 751 752 759 757 750 743 736 738 729 709 687 692 689 685 681 677 671 671 668 667 663 656 652 651 651
772 773 774 775 778 780 779 781 782 784 784 783 775 759 751 751 748 747 748 754 757 756 750 740 732 722 717 708 691 689 684 681 686 684 683 679 674 669 665 661 658 648 641 638
772 773 775 778 779 777 778 780 781 783 785 775 770 761 750 751 747 743 746 748 745 738 736 731 727 714 711 690 685 686 687 685 684 684 679 674 669 663 657 653 648 645 641 636
773 776 776 779 775 779 781 782 781 781 776 772 764 755 754 751 748 745 741 740 735 726 714 711 716 702 694 694 694 695 689 687 684 678 670 663 661 657 654 650 645 640 635 633
775 776 772 777 778 780 780 778 774 766 767 758 752 751 750 747 748 743 740 732 729 721 711 717 703 693 698 696 692 689 690 686 682 676 668 665 661 653 647 641 640 636 632 627
773 772 773 777 778 777 778 768 761 761 748 742 743 748 748 744 745 742 734 730 728 714 713 710 690 693 690 689 690 688 686 683 679 673 668 661 653 647 639 632 629 629 628 628
773 771 774 772 775 775 770 760 753 749 745 744 743 745 744 741 741 737 731 726 712 701 701 687 693 689 691 692 691 688 685 683 677 671 663 656 649 642 634 626 625 627 626 628
768 774 772 770 763 756 745 743 741 743 743 742 739 740 740 732 732 724 722 706 699 697 690 690 689 694 694 695 693 689 684 680 676 669 662 656 650 643 637 631 627 626 628 630
768 767 763 757 748 746 746 746 746 742 738 737 735 731 732 725 722 716 708 704 693 692 698 697 698 696 696 695 692 688 684 680 674 669 663 657 652 646 640 637 634 632 632 633
764 761 757 749 749 747 746 746 744 740 735 733 729 730 721 712 709 705 697 691 694 699 700 700 699 698 696 694 691 689 686 681 675 670 664 658 653 649 645 642 639 637 636 636
761 753 749 748 746 746 744 741 738 738 737 735 724 724 717 707 701 692 690 696 701 700 700 700 700 699 696 694 692 690 686 680 674 669 664 659 655 650 645 643 642 641 639 639